Location: Unspecified
(41.5516°N, 88.1098°W)
Time: 21:13:15
(UTC-05:00)

Okean 3 - Visible Passes

Search period start: 27 August 2015 00:00
Search period end: 06 September 2015 00:00
Orbit: 581 x 604 km, 82.5° (Epoch: 27 August)

Date Brightness Start Highest point End Pass type
(mag) Time Alt. Az. Time Alt. Az. Time Alt. Az.
27 Aug 5.4 05:14:41 10° SSE 05:18:28 32° E 05:22:20 10° NNE visible
28 Aug 4.5 05:23:16 10° SSE 05:27:23 50° E 05:31:35 10° NNE visible
29 Aug 3.7 05:32:05 10° S 05:36:21 79° E 05:40:40 10° N visible
30 Aug 3.5 05:41:06 10° SSW 05:45:20 66° W 05:49:38 10° N visible
31 Aug 6.4 04:14:56 10° ESE 04:17:23 15° E 04:20:01 10° NE visible
01 Sep 5.8 04:22:54 10° SE 04:26:15 23° E 04:29:43 10° NE visible
02 Sep 5.1 04:31:16 10° SSE 04:35:09 35° E 04:39:06 10° NNE visible
03 Sep 4.2 04:39:54 10° S 04:44:04 54° E 04:48:18 10° NNE visible
04 Sep 3.5 04:49:17 13° S 04:53:02 85° E 04:57:22 10° N visible
05 Sep 6.5 03:24:13 10° E 03:25:12 11° E 03:26:26 10° ENE visible
05 Sep 3.5 04:59:01 19° SSW 05:02:01 61° W 05:06:19 10° N visible
